| time (UTC) | temp F | wind direction | speed knots | gust knots | rain 1hr in | rain 24hr in | rain mn in | humidity % | barometer mb |
| 20260505024528 | 58 | 205 | 3.5 | 9.6 | 0.00 | 0.00 | 0.00 | 57 | 1010.4 |
| 20260505023029 | 58 | 233 | 5.2 | 9.6 | 0.00 | 0.00 | 0.00 | 55 | 1010.4 |
| 20260505021529 | 59 | 278 | 5.2 | 11.3 | 0.00 | 0.00 | 0.00 | 54 | 1010.4 |
| 20260505020019 | 59 | 242 | 4.3 | 10.4 | 0.00 | 0.00 | 0.00 | 53 | 1010.3 |
| 20260505014523 | 59 | 210 | 4.3 | 13.0 | 0.00 | 0.00 | 0.00 | 52 | 1010.3 |
| 20260505013026 | 60 | 252 | 4.3 | 9.6 | 0.00 | 0.00 | 0.00 | 50 | 1010.1 |
| 20260505011527 | 61 | 230 | 2.6 | 8.7 | 0.00 | 0.00 | 0.00 | 49 | 1009.9 |
| 20260505010015 | 61 | 209 | 4.3 | 13.0 | 0.00 | 0.00 | 0.00 | 48 | 1009.7 |
| 20260505004535 | 62 | 209 | 2.6 | 11.3 | 0.00 | 0.00 | 0.00 | 47 | 1009.5 |
| 20260505003002 | 62 | 217 | 5.2 | 11.3 | 0.00 | 0.00 | 0.00 | 46 | 1009.1 |
| 20260505001508 | 63 | 150 | 4.3 | 12.2 | 0.00 | 0.00 | 0.00 | 45 | 1008.7 |
| 20260505000018 | 64 | 167 | 5.2 | 10.4 | 0.00 | 0.00 | 0.00 | 45 | 1008.2 |
| 20260504234527 | 65 | 188 | 5.2 | 11.3 | 0.00 | 0.00 | 0.00 | 43 | 1008.0 |
| 20260504233023 | 65 | 220 | 5.2 | 14.8 | 0.00 | 0.00 | 0.00 | 42 | 1007.8 |
| 20260504231519 | 66 | 226 | 7.0 | 16.5 | 0.00 | 0.00 | 0.00 | 41 | 1007.6 |
| 20260504230011 | 67 | 219 | 6.1 | 14.8 | 0.00 | 0.00 | 0.00 | 39 | 1007.1 |
| 20260504224511 | 68 | 252 | 5.2 | 11.3 | 0.00 | 0.00 | 0.00 | 37 | 1006.7 |
| 20260504223019 | 69 | 223 | 3.5 | 13.9 | 0.00 | 0.00 | 0.00 | 36 | 1006.5 |
| 20260504221524 | 70 | 213 | 5.2 | 16.5 | 0.00 | 0.00 | 0.00 | 33 | 1006.5 |
| 20260504220004 | 72 | 229 | 6.1 | 11.3 | 0.00 | 0.00 | 0.00 | 29 | 1006.4 |
| 20260504214516 | 72 | 224 | 5.2 | 12.2 | 0.00 | 0.00 | 0.00 | 29 | 1006.5 |
| 20260504213012 | 73 | 194 | 5.2 | 10.4 | 0.00 | 0.00 | 0.00 | 28 | 1006.4 |
| 20260504211521 | 73 | 247 | 3.5 | 9.6 | 0.00 | 0.00 | 0.00 | 28 | 1006.3 |
| 20260504210027 | 73 | 239 | 0.9 | 16.5 | 0.00 | 0.00 | 0.00 | 28 | 1006.4 |
| 20260504204511 | 74 | 213 | 2.6 | 12.2 | 0.00 | 0.00 | 0.00 | 28 | 1006.3 |
| 20260504203013 | 74 | 244 | 2.6 | 8.7 | 0.00 | 0.00 | 0.00 | 28 | 1006.4 |
| 20260504201519 | 74 | 12 | 5.2 | 10.4 | 0.00 | 0.00 | 0.00 | 26 | 1006.7 |
| 20260504200029 | 74 | 230 | 1.7 | 12.2 | 0.00 | 0.00 | 0.00 | 27 | 1006.9 |
| 20260504194528 | 73 | 231 | 3.5 | 13.0 | 0.00 | 0.00 | 0.00 | 26 | 1006.7 |
| 20260504193020 | 73 | 122 | 5.2 | 13.0 | 0.00 | 0.00 | 0.00 | 26 | 1006.8 |
| 20260504191516 | 73 | 215 | 7.8 | 16.5 | 0.00 | 0.00 | 0.00 | 25 | 1006.8 |
| 20260504190018 | 73 | 236 | 5.2 | 9.6 | 0.00 | 0.00 | 0.00 | 25 | 1006.9 |
| 20260504184525 | 73 | 305 | 5.2 | 11.3 | 0.00 | 0.00 | 0.00 | 25 | 1007.1 |
| 20260504183028 | 73 | 263 | 6.1 | 12.2 | 0.00 | 0.00 | 0.00 | 26 | 1007.2 |
| 20260504181513 | 72 | 258 | 1.7 | 8.7 | 0.00 | 0.00 | 0.00 | 27 | 1007.2 |
| 20260504180017 | 72 | 226 | 3.5 | 14.8 | 0.00 | 0.00 | 0.00 | 27 | 1007.5 |
| 20260504174523 | 71 | 338 | 6.1 | 18.2 | 0.00 | 0.00 | 0.00 | 28 | 1007.7 |
| 20260504173025 | 71 | 220 | 4.3 | 20.9 | 0.00 | 0.00 | 0.00 | 28 | 1007.7 |
| 20260504171538 | 71 | 215 | 5.2 | 10.4 | 0.00 | 0.00 | 0.00 | 28 | 1007.7 |
| 20260504081529 | 45 | 205 | 0.0 | 1.7 | 0.00 | 0.01 | 0.00 | 60 | 1010.3 |
| 20260504050021 | 37 | 254 | 0.0 | 0.0 | 0.00 | 0.01 | 0.00 | 75 | 1010.4 |
| 20260504044527 | 37 | 254 | 0.0 | 0.0 | 0.00 | 0.01 | 0.00 | 75 | 1010.4 |
| 20260504043028 | 38 | 253 | 0.0 | 0.0 | 0.00 | 0.01 | 0.00 | 74 | 1010.3 |
| 20260504041530 | 38 | 253 | 0.0 | 0.0 | 0.00 | 0.01 | 0.00 | 72 | 1010.3 |
| 20260504040023 | 39 | 253 | 0.0 | 0.0 | 0.00 | 0.01 | 0.00 | 70 | 1010.1 |
| 20260504034523 | 39 | 253 | 0.0 | 0.0 | 0.00 | 0.01 | 0.01 | 70 | 1010.0 |
| 20260504033025 | 40 | 253 | 0.0 | 0.0 | 0.00 | 0.01 | 0.01 | 68 | 1009.9 |
| 20260504031528 | 40 | 253 | 0.0 | 0.0 | 0.00 | 0.01 | 0.01 | 65 | 1009.9 |
| 20260504030018 | 40 | 253 | 0.0 | 0.0 | 0.00 | 0.01 | 0.01 | 66 | 1009.9 |